Weather History for Valentine, NE

Change the Weather History Date:

Wednesday, January 9, 2013

  Actual Average Record
Temperature  
Mean Temperature 37 °F 23 °F  
Max Temperature 56 °F 36 °F 59 °F (1933)
Min Temperature 17 °F 10 °F -30 °F (1988)
Degree Days  
Heating Degree Days 28 42  
Month to date heating degree days 342 378  
Since 1 July heating degree days 3018 3273  
Cooling Degree Days 0 0  
Month to date cooling degree days 0 0  
Year to date cooling degree days 0 0  
Moisture  
Dew Point 24 °F    
Average Humidity 61    
Maximum Humidity 92    
Minimum Humidity 30    
Precipitation  
Precipitation 0.00 in 0.01 in 1.01 in (1939)
Month to date precipitation 0.01 0.08  
Year to date precipitation 0.01 0.08  
Snow  
Snow 0.00 in 0.10 in 5.40 in (1957)
Month to date snowfall 0.2 1.2  
Since 1 July snowfall 13.5 13.9  
Snow Depth 0.00 in    
Sea Level Pressure  
Sea Level Pressure 30.21 in    
Wind  
Wind Speed 13 mph (SW)    
Max Wind Speed 31 mph    
Max Gust Speed 39 mph    
Visibility 10 miles    
Events      
T = Trace of Precipitation, MM = Missing Value Source: NWS Daily Summary

Daily Weather History Graph

Daily Weather History Graph

Search for Another Location

Airport:

Trip Planner

Search our weather history database for the weather conditions in past years. The results will help you decide how hot, cold, wet, or windy it might be!

Date:

Astronomy

Jan. 09, 2013 Rise Set
Actual Time 8:12 AM CST 5:26 PM CST
Civil Twilight 7:40 AM CST 5:58 PM CST
Nautical Twilight 7:05 AM CST 6:33 PM CST
Astronomical Twilight 6:31 AM CST 7:08 PM CST
Moon 5:53 AM CST (1/9) 3:30 PM CST (1/9)
Length of Visible Light 10h 18m
Length of Day
9h 14m
Waning Crescent, 6% of the Moon is Illuminated
Jan 9
Waning Crescent
Jan 11
New
Jan 18
First Quarter
Jan 26
Full
Feb 3
Last Quarter

Hourly Weather History & Observations

Time (CST) Temp. Windchill Dew Point Humidity Pressure Visibility Wind Dir Wind Speed Gust Speed Precip Events Conditions
12:52 AM 25.0 °F 18.1 °F 21.0 °F 85% 30.24 in 10.0 mi SW 5.8 mph - N/A   Clear
1:52 AM 25.0 °F 20.7 °F 21.0 °F 85% 30.24 in 10.0 mi West 3.5 mph - N/A   Clear
2:52 AM 25.0 °F 19.3 °F 21.0 °F 85% 30.26 in 10.0 mi WSW 4.6 mph - N/A   Clear
3:52 AM 25.0 °F 20.7 °F 19.9 °F 81% 30.24 in 10.0 mi West 3.5 mph - N/A   Clear
4:52 AM 19.0 °F 11.1 °F 16.0 °F 88% 30.26 in 10.0 mi West 5.8 mph - N/A   Clear
5:52 AM 19.9 °F 12.1 °F 17.1 °F 89% 30.25 in 10.0 mi SSW 5.8 mph - N/A   Clear
6:52 AM 17.1 °F - 14.0 °F 88% 30.26 in 10.0 mi Calm Calm - N/A   Clear
7:52 AM 17.6 °F 8.2 °F 15.8 °F 93% 30.18 in 10.0 mi WSW 6.9 mph - N/A   Clear
8:52 AM 19.0 °F 10.0 °F 15.1 °F 85% 30.32 in 10.0 mi SSW 6.9 mph - N/A   Clear
9:52 AM 30.9 °F 22.8 °F 25.0 °F 79% 30.32 in 10.0 mi SSW 9.2 mph - N/A   Clear
10:52 AM 37.9 °F 28.5 °F 27.0 °F 65% 30.30 in 10.0 mi SSW 17.3 mph 21.9 mph N/A   Clear
11:52 AM 48.0 °F - 27.0 °F 44% 30.27 in 10.0 mi SSW 16.1 mph - N/A   Clear
12:52 PM 50.0 °F - 28.0 °F 43% 30.25 in 10.0 mi SSW 18.4 mph - N/A   Clear
1:52 PM 54.0 °F - 25.0 °F 33% 30.21 in 10.0 mi SW 21.9 mph 31.1 mph N/A   Clear
2:52 PM 55.0 °F - 25.0 °F 31% 30.20 in 10.0 mi SSW 25.3 mph 31.1 mph N/A   Clear
3:52 PM 54.0 °F - 26.1 °F 34% 30.18 in 10.0 mi SW 17.3 mph 23.0 mph N/A   Clear
4:52 PM 50.0 °F - 27.0 °F 41% 30.19 in 10.0 mi SSW 15.0 mph - N/A   Clear
5:52 PM 46.0 °F 40.2 °F 26.1 °F 46% 30.19 in 10.0 mi South 12.7 mph - N/A   Clear
6:52 PM 43.0 °F 35.4 °F 27.0 °F 53% 30.18 in 10.0 mi South 16.1 mph - N/A   Clear
7:52 PM 43.0 °F 33.8 °F 27.0 °F 53% 30.16 in 10.0 mi SSW 23.0 mph 31.1 mph N/A   Clear
8:52 PM 36.0 °F 28.0 °F 27.0 °F 70% 30.18 in 10.0 mi SSW 11.5 mph - N/A   Clear
9:52 PM 37.0 °F 28.5 °F 27.0 °F 67% 30.15 in 10.0 mi SSW 13.8 mph - N/A   Clear
10:52 PM 39.0 °F 29.9 °F 27.0 °F 62% 30.12 in 10.0 mi SSW 17.3 mph 21.9 mph N/A   Clear
11:52 PM 39.9 °F 29.7 °F 28.0 °F 63% 30.08 in 10.0 mi SSW 23.0 mph 34.5 mph N/A   Clear